Time,TemperatureF,DewpointF,PressureIn,WindDirection,WindDirectionDegrees,WindSpeedMPH,WindSpeedGustMPH,Humidity,HourlyPrecipIn,Conditions,Clouds,dailyrainin,SoftwareType,DateUTC
2013-02-28 00:00:00,32.4,23.0,30.06,ENE,67,3.6,10.5,68,0.00,,SKC,0.00,VWS V13.01,2013-02-28 06:00:00,
2013-02-28 00:10:00,32.4,23.3,30.06,NNE,29,5.4,8.7,69,0.00,,SKC,0.00,VWS V13.01,2013-02-28 06:10:00,
2013-02-28 00:20:00,32.2,23.2,30.06,NE,41,8.7,8.7,69,0.00,,SKC,0.00,VWS V13.01,2013-02-28 06:20:00,
2013-02-28 00:30:00,32.2,23.2,30.06,East,88,5.4,8.7,69,0.00,,SKC,0.00,VWS V13.01,2013-02-28 06:30:00,
2013-02-28 00:40:00,32.0,23.0,30.06,NE,38,4.9,8.3,69,0.00,,SKC,0.00,VWS V13.01,2013-02-28 06:40:00,
2013-02-28 00:50:00,31.8,22.8,30.06,NE,39,4.0,10.1,69,0.00,,SKC,0.00,VWS V13.01,2013-02-28 06:50:00,
2013-02-28 01:00:00,31.8,22.5,30.06,ENE,66,3.6,10.5,68,0.00,,SKC,0.00,VWS V13.01,2013-02-28 07:00:00,
2013-02-28 01:10:00,31.5,22.5,30.06,East,85,3.6,7.2,69,0.00,,SKC,0.00,VWS V13.01,2013-02-28 07:10:00,
2013-02-28 01:20:00,31.3,22.0,30.06,ENE,63,4.0,10.1,68,0.00,,SKC,0.00,VWS V13.01,2013-02-28 07:20:00,
2013-02-28 01:30:00,31.1,22.1,30.06,NE,48,5.8,10.5,69,0.00,,SKC,0.00,VWS V13.01,2013-02-28 07:30:00,
2013-02-28 01:40:00,30.9,22.0,30.06,NE,48,4.0,8.1,69,0.00,,SKC,0.00,VWS V13.01,2013-02-28 07:40:00,
2013-02-28 01:50:00,30.7,21.8,30.06,ENE,68,4.9,6.3,69,0.00,,SKC,0.00,VWS V13.01,2013-02-28 07:50:00,
2013-02-28 02:00:00,30.6,21.6,30.06,ENE,61,2.2,8.1,69,0.00,,SKC,0.00,VWS V13.01,2013-02-28 08:00:00,
2013-02-28 02:10:00,30.2,21.6,30.06,NE,52,5.4,7.6,70,0.00,,SKC,0.00,VWS V13.01,2013-02-28 08:10:00,
2013-02-28 02:20:00,29.7,21.1,30.06,ENE,70,6.3,7.6,70,0.00,,SKC,0.00,VWS V13.01,2013-02-28 08:20:00,
2013-02-28 02:30:00,29.3,20.7,30.06,NE,38,3.1,8.1,70,0.00,,SKC,0.00,VWS V13.01,2013-02-28 08:30:00,
2013-02-28 02:40:00,28.9,20.4,30.06,ENE,77,8.1,8.1,70,0.00,,SKC,0.00,VWS V13.01,2013-02-28 08:40:00,
2013-02-28 02:50:00,28.8,19.9,30.06,ENE,61,8.1,8.3,69,0.00,,SKC,0.00,VWS V13.01,2013-02-28 08:50:00,
2013-02-28 03:00:00,28.4,19.5,30.06,NE,51,5.8,8.3,69,0.00,,SKC,0.00,VWS V13.01,2013-02-28 09:00:00,
2013-02-28 03:10:00,28.2,19.4,30.06,ENE,64,5.4,8.3,69,0.00,,SKC,0.00,VWS V13.01,2013-02-28 09:10:00,
2013-02-28 03:20:00,28.0,19.2,30.06,NE,48,8.3,8.3,69,0.00,,SKC,0.00,VWS V13.01,2013-02-28 09:20:00,
2013-02-28 03:30:00,27.9,19.0,30.06,East,89,4.0,8.3,69,0.00,,SKC,0.00,VWS V13.01,2013-02-28 09:30:00,
2013-02-28 03:40:00,27.7,19.2,30.06,ENE,61,4.0,8.7,70,0.00,,SKC,0.00,VWS V13.01,2013-02-28 09:40:00,
2013-02-28 03:50:00,27.5,19.0,30.06,NE,34,4.9,8.3,70,0.00,,SKC,0.00,VWS V13.01,2013-02-28 09:50:00,
2013-02-28 04:00:00,27.5,19.4,30.06,NE,35,4.0,7.6,71,0.00,,SKC,0.00,VWS V13.01,2013-02-28 10:00:00,
2013-02-28 04:10:00,27.5,19.4,30.09,ESE,102,3.6,6.7,71,0.00,,SKC,0.00,VWS V13.01,2013-02-28 10:10:00,
2013-02-28 04:20:00,27.5,19.4,30.09,NE,48,3.1,8.1,71,0.00,,SKC,0.00,VWS V13.01,2013-02-28 10:20:00,
2013-02-28 04:30:00,27.5,19.4,30.09,East,88,5.4,7.6,71,0.00,,SKC,0.00,VWS V13.01,2013-02-28 10:30:00,
2013-02-28 04:40:00,27.5,19.7,30.09,East,99,2.7,7.2,72,0.00,,SKC,0.00,VWS V13.01,2013-02-28 10:40:00,
2013-02-28 04:50:00,27.5,19.7,30.09,NE,39,3.6,8.3,72,0.00,,SKC,0.00,VWS V13.01,2013-02-28 10:50:00,
2013-02-28 05:00:00,27.7,19.9,30.09,NE,39,6.3,8.3,72,0.00,,SKC,0.00,VWS V13.01,2013-02-28 11:00:00,
2013-02-28 05:10:00,27.5,19.7,30.09,ESE,110,5.4,7.6,72,0.00,,SKC,0.00,VWS V13.01,2013-02-28 11:10:00,
2013-02-28 05:20:00,27.5,19.7,30.09,NNE,27,6.3,8.1,72,0.00,,SKC,0.00,VWS V13.01,2013-02-28 11:20:00,
2013-02-28 05:30:00,27.5,19.7,30.09,NE,39,3.1,8.1,72,0.00,,SKC,0.00,VWS V13.01,2013-02-28 11:30:00,
2013-02-28 05:40:00,27.5,19.7,30.12,ENE,76,2.7,8.1,72,0.00,,SKC,0.00,VWS V13.01,2013-02-28 11:40:00,
2013-02-28 05:50:00,27.5,19.7,30.12,SE,133,2.7,7.6,72,0.00,,SKC,0.00,VWS V13.01,2013-02-28 11:50:00,
2013-02-28 06:00:00,27.7,19.9,30.12,ENE,61,6.3,10.5,72,0.00,,SKC,0.00,VWS V13.01,2013-02-28 12:00:00,
2013-02-28 06:10:00,27.7,19.9,30.12,NE,35,3.1,6.3,72,0.00,,SKC,0.00,VWS V13.01,2013-02-28 12:10:00,
2013-02-28 06:20:00,27.7,19.9,30.12,ESE,104,6.3,8.3,72,0.00,,SKC,0.00,VWS V13.01,2013-02-28 12:20:00,
2013-02-28 06:30:00,27.9,20.0,30.12,ENE,76,5.8,9.6,72,0.00,,SKC,0.00,VWS V13.01,2013-02-28 12:30:00,
2013-02-28 06:40:00,27.9,20.3,30.12,East,81,5.8,8.7,73,0.00,,SKC,0.00,VWS V13.01,2013-02-28 12:40:00,
2013-02-28 06:50:00,27.9,20.0,30.12,East,79,4.0,8.7,72,0.00,,SKC,0.00,VWS V13.01,2013-02-28 12:50:00,
2013-02-28 07:00:00,27.9,20.0,30.12,ENE,60,3.1,7.6,72,0.00,,SKC,0.00,VWS V13.01,2013-02-28 13:00:00,
2013-02-28 07:10:00,28.0,20.2,30.12,NE,41,4.9,8.7,72,0.00,,SKC,0.00,VWS V13.01,2013-02-28 13:10:00,
2013-02-28 07:20:00,28.0,20.2,30.12,NE,34,3.1,7.6,72,0.00,,SKC,0.00,VWS V13.01,2013-02-28 13:20:00,
2013-02-28 07:30:00,28.2,20.4,30.15,East,101,3.6,7.6,72,0.00,,SKC,0.00,VWS V13.01,2013-02-28 13:30:00,
2013-02-28 07:40:00,28.4,20.5,30.15,NE,43,4.9,5.8,72,0.00,,SKC,0.00,VWS V13.01,2013-02-28 13:40:00,
2013-02-28 07:50:00,28.4,20.5,30.15,NE,42,3.1,6.7,72,0.00,,SKC,0.00,VWS V13.01,2013-02-28 13:50:00,
2013-02-28 08:00:00,28.6,20.4,30.15,NE,40,4.0,8.7,71,0.00,,SKC,0.00,VWS V13.01,2013-02-28 14:00:00,
2013-02-28 08:20:00,28.9,20.4,30.15,ENE,75,3.1,8.3,70,0.00,,SKC,0.00,VWS V13.01,2013-02-28 14:20:00,
2013-02-28 08:30:00,28.9,20.4,30.15,NE,44,3.1,5.8,70,0.00,,SKC,0.00,VWS V13.01,2013-02-28 14:30:00,
2013-02-28 08:40:00,29.1,20.6,30.15,ESE,116,5.4,6.3,70,0.00,,SKC,0.00,VWS V13.01,2013-02-28 14:40:00,
2013-02-28 08:50:00,29.3,20.4,30.15,ENE,61,4.0,7.2,69,0.00,,SKC,0.00,VWS V13.01,2013-02-28 14:50:00,
2013-02-28 09:00:00,29.3,20.7,30.15,NNE,31,3.6,6.3,70,0.00,,SKC,0.00,VWS V13.01,2013-02-28 15:00:00,
2013-02-28 09:10:00,29.5,20.6,30.15,NE,46,4.9,7.6,69,0.00,,SKC,0.00,VWS V13.01,2013-02-28 15:10:00,
2013-02-28 09:20:00,29.5,20.6,30.15,ENE,78,5.8,8.3,69,0.00,,SKC,0.00,VWS V13.01,2013-02-28 15:20:00,
2013-02-28 09:30:00,29.7,20.8,30.15,ESE,114,2.2,7.6,69,0.00,,SKC,0.00,VWS V13.01,2013-02-28 15:30:00,
2013-02-28 09:40:00,29.7,20.8,30.15,NE,44,3.6,8.3,69,0.00,,SKC,0.00,VWS V13.01,2013-02-28 15:40:00,
2013-02-28 09:50:00,29.8,20.9,30.15,East,85,2.7,6.3,69,0.00,,SKC,0.00,VWS V13.01,2013-02-28 15:50:00,
2013-02-28 10:00:00,29.8,20.9,30.18,ENE,68,2.7,6.7,69,0.00,,SKC,0.00,VWS V13.01,2013-02-28 16:00:00,
2013-02-28 10:10:00,29.8,20.9,30.18,East,96,3.1,6.7,69,0.00,,SKC,0.00,VWS V13.01,2013-02-28 16:10:00,
2013-02-28 10:20:00,30.0,20.8,30.18,NE,48,3.1,9.2,68,0.00,,SKC,0.00,VWS V13.01,2013-02-28 16:20:00,
2013-02-28 10:30:00,30.2,20.9,30.18,NE,45,4.0,5.4,68,0.00,,SKC,0.00,VWS V13.01,2013-02-28 16:30:00,
2013-02-28 10:40:00,30.4,21.1,30.18,ENE,75,5.4,5.8,68,0.00,,SKC,0.00,VWS V13.01,2013-02-28 16:40:00,
2013-02-28 10:50:00,30.4,21.1,30.18,ENE,68,2.7,5.8,68,0.00,,SKC,0.00,VWS V13.01,2013-02-28 16:50:00,
2013-02-28 11:00:00,30.4,21.1,30.18,NE,43,5.4,5.4,68,0.00,,SKC,0.00,VWS V13.01,2013-02-28 17:00:00,
2013-02-28 11:10:00,30.4,21.1,30.18,ENE,71,2.7,5.8,68,0.00,,SKC,0.00,VWS V13.01,2013-02-28 17:10:00,
2013-02-28 11:20:00,30.7,21.4,30.18,East,95,2.7,5.4,68,0.00,,SKC,0.00,VWS V13.01,2013-02-28 17:20:00,
2013-02-28 11:30:00,30.7,21.4,30.18,ENE,65,2.7,5.8,68,0.00,,SKC,0.00,VWS V13.01,2013-02-28 17:30:00,
2013-02-28 11:40:00,30.7,21.1,30.18,NE,51,0.0,5.4,67,0.00,,SKC,0.00,VWS V13.01,2013-02-28 17:40:00,
2013-02-28 11:50:00,30.7,21.1,30.18,ENE,63,0.0,4.9,67,0.00,,SKC,0.00,VWS V13.01,2013-02-28 17:50:00,
2013-02-28 12:00:00,30.6,20.9,30.18,NNE,30,4.0,9.6,67,0.00,,SKC,0.00,VWS V13.01,2013-02-28 18:00:00,
2013-02-28 12:10:00,30.4,20.8,30.18,ENE,63,3.1,5.8,67,0.00,,SKC,0.00,VWS V13.01,2013-02-28 18:10:00,
2013-02-28 12:20:00,30.9,21.3,30.18,ENE,65,4.0,5.8,67,0.00,,SKC,0.00,VWS V13.01,2013-02-28 18:20:00,
2013-02-28 12:30:00,32.0,22.3,30.18,NNE,25,0.0,4.0,67,0.00,,SKC,0.00,VWS V13.01,2013-02-28 18:30:00,
2013-02-28 12:40:00,32.7,20.8,30.18,NNE,31,3.6,7.6,61,0.00,,SKC,0.00,VWS V13.01,2013-02-28 18:40:00,
2013-02-28 12:50:00,33.3,21.7,30.18,ENE,63,3.6,5.4,62,0.00,,SKC,0.00,VWS V13.01,2013-02-28 18:50:00,
2013-02-28 13:00:00,32.9,20.5,30.18,NE,37,2.7,8.3,60,0.00,,SKC,0.00,VWS V13.01,2013-02-28 19:00:00,
2013-02-28 13:10:00,32.7,21.1,30.18,ENE,62,4.0,8.1,62,0.00,,SKC,0.00,VWS V13.01,2013-02-28 19:10:00,
2013-02-28 13:20:00,32.7,21.1,30.18,NE,36,4.0,6.3,62,0.00,,SKC,0.00,VWS V13.01,2013-02-28 19:20:00,
2013-02-28 13:30:00,32.5,21.4,30.18,NE,45,4.0,6.3,63,0.00,,SKC,0.00,VWS V13.01,2013-02-28 19:30:00,
2013-02-28 13:40:00,32.4,21.9,30.18,NNE,21,4.0,6.3,65,0.00,,SKC,0.00,VWS V13.01,2013-02-28 19:40:00,
2013-02-28 13:50:00,32.2,21.8,30.18,NNE,31,3.6,8.1,65,0.00,,SKC,0.00,VWS V13.01,2013-02-28 19:50:00,
2013-02-28 14:00:00,32.5,21.7,30.18,East,79,2.7,6.3,64,0.00,,SKC,0.00,VWS V13.01,2013-02-28 20:00:00,
2013-02-28 14:10:00,32.4,21.2,30.18,NNE,15,6.3,7.6,63,0.00,,SKC,0.00,VWS V13.01,2013-02-28 20:10:00,
2013-02-28 14:20:00,32.4,21.9,30.18,NE,40,2.7,8.7,65,0.00,,SKC,0.00,VWS V13.01,2013-02-28 20:20:00,
2013-02-28 14:30:00,32.5,22.5,30.18,NNE,22,7.6,7.6,66,0.00,,SKC,0.00,VWS V13.01,2013-02-28 20:30:00,
2013-02-28 14:40:00,32.4,21.9,30.18,ENE,65,4.0,7.6,65,0.00,,SKC,0.00,VWS V13.01,2013-02-28 20:40:00,
2013-02-28 14:50:00,32.4,21.9,30.18,NE,40,3.1,6.3,65,0.00,,SKC,0.00,VWS V13.01,2013-02-28 20:50:00,
2013-02-28 15:00:00,32.4,22.3,30.18,NNE,32,4.0,5.8,66,0.00,,SKC,0.00,VWS V13.01,2013-02-28 21:00:00,
2013-02-28 15:10:00,32.5,22.1,30.18,NE,54,4.9,6.3,65,0.00,,SKC,0.00,VWS V13.01,2013-02-28 21:10:00,
2013-02-28 15:20:00,32.7,22.3,30.18,ENE,68,3.1,6.3,65,0.00,,SKC,0.00,VWS V13.01,2013-02-28 21:20:00,
2013-02-28 15:30:00,32.7,21.1,30.18,NE,54,4.0,5.8,62,0.00,,SKC,0.00,VWS V13.01,2013-02-28 21:30:00,
2013-02-28 15:40:00,32.7,21.5,30.18,NE,36,5.4,5.8,63,0.00,,SKC,0.00,VWS V13.01,2013-02-28 21:40:00,
2013-02-28 15:50:00,32.7,21.9,30.18,NE,43,3.6,5.4,64,0.00,,SKC,0.00,VWS V13.01,2013-02-28 21:50:00,
2013-02-28 16:00:00,33.1,22.2,30.18,ESE,111,0.0,4.5,64,0.00,,SKC,0.00,VWS V13.01,2013-02-28 22:00:00,
2013-02-28 16:10:00,32.9,21.7,30.18,NE,44,2.7,4.9,63,0.00,,SKC,0.00,VWS V13.01,2013-02-28 22:10:00,
2013-02-28 16:20:00,32.7,21.1,30.18,NNE,28,2.7,6.3,62,0.00,,SKC,0.00,VWS V13.01,2013-02-28 22:20:00,
2013-02-28 16:30:00,32.5,21.4,30.18,NE,42,3.6,5.4,63,0.00,,SKC,0.00,VWS V13.01,2013-02-28 22:30:00,
2013-02-28 16:40:00,32.4,22.3,30.18,ENE,57,2.7,5.4,66,0.00,,SKC,0.00,VWS V13.01,2013-02-28 22:40:00,
2013-02-28 16:50:00,32.4,22.3,30.18,ENE,58,0.0,3.6,66,0.00,,SKC,0.00,VWS V13.01,2013-02-28 22:50:00,
2013-02-28 17:00:00,32.2,22.5,30.18,NNE,20,0.0,5.4,67,0.00,,SKC,0.00,VWS V13.01,2013-02-28 23:00:00,
2013-02-28 17:10:00,32.2,22.5,30.18,NNE,25,0.0,6.3,67,0.00,,SKC,0.00,VWS V13.01,2013-02-28 23:10:00,
2013-02-28 17:20:00,32.2,22.5,30.18,NNE,31,0.0,0.0,67,0.00,,SKC,0.00,VWS V13.01,2013-02-28 23:20:00,
2013-02-28 17:30:00,32.0,22.3,30.18,NNE,31,0.0,0.0,67,0.00,,SKC,0.00,VWS V13.01,2013-02-28 23:30:00,
2013-02-28 17:50:00,32.0,22.6,30.18,NNE,26,0.0,0.0,68,0.00,,SKC,0.00,VWS V13.01,2013-02-28 23:50:00,
2013-02-28 18:00:00,31.8,22.5,30.18,NNE,30,0.0,4.0,68,0.00,,SKC,0.00,VWS V13.01,2013-03-01 00:00:00,
2013-02-28 18:10:00,31.6,22.0,30.18,NE,55,0.0,4.9,67,0.00,,SKC,0.00,VWS V13.01,2013-03-01 00:10:00,
2013-02-28 18:20:00,31.6,22.3,30.18,NE,55,0.0,0.0,68,0.00,,SKC,0.00,VWS V13.01,2013-03-01 00:20:00,
2013-02-28 18:30:00,31.5,22.1,30.18,NE,56,3.6,3.6,68,0.00,,SKC,0.00,VWS V13.01,2013-03-01 00:30:00,
2013-02-28 18:40:00,31.3,22.0,30.18,NE,54,0.0,3.6,68,0.00,,SKC,0.00,VWS V13.01,2013-03-01 00:40:00,
2013-02-28 18:50:00,31.3,22.0,30.18,NE,54,0.0,0.0,68,0.00,,SKC,0.00,VWS V13.01,2013-03-01 00:50:00,
2013-02-28 19:00:00,31.1,22.1,30.18,NE,55,0.0,4.0,69,0.00,,SKC,0.00,VWS V13.01,2013-03-01 01:00:00,
2013-02-28 19:10:00,31.1,22.1,30.21,NE,54,0.0,0.0,69,0.00,,SKC,0.00,VWS V13.01,2013-03-01 01:10:00,
2013-02-28 19:20:00,31.1,22.1,30.21,NE,55,0.0,0.0,69,0.00,,SKC,0.00,VWS V13.01,2013-03-01 01:20:00,
2013-02-28 19:30:00,31.1,22.1,30.21,NE,55,0.0,0.0,69,0.00,,SKC,0.00,VWS V13.01,2013-03-01 01:30:00,
2013-02-28 19:40:00,31.1,22.1,30.21,NE,54,0.0,0.0,69,0.00,,SKC,0.00,VWS V13.01,2013-03-01 01:40:00,
2013-02-28 19:50:00,31.1,22.1,30.21,NE,50,0.0,0.0,69,0.00,,SKC,0.00,VWS V13.01,2013-03-01 01:50:00,
2013-02-28 20:00:00,31.1,22.1,30.21,NE,50,0.0,0.0,69,0.00,,SKC,0.00,VWS V13.01,2013-03-01 02:00:00,
2013-02-28 20:10:00,30.9,22.0,30.21,NE,53,2.7,3.6,69,0.00,,SKC,0.00,VWS V13.01,2013-03-01 02:10:00,
2013-02-28 20:20:00,30.9,22.0,30.21,NE,53,0.0,2.7,69,0.00,,SKC,0.00,VWS V13.01,2013-03-01 02:20:00,
2013-02-28 20:30:00,30.9,22.0,30.21,NE,53,0.0,0.0,69,0.00,,SKC,0.00,VWS V13.01,2013-03-01 02:30:00,
2013-02-28 20:40:00,30.9,22.0,30.18,NNE,18,0.0,0.0,69,0.00,,SKC,0.00,VWS V13.01,2013-03-01 02:40:00,
2013-02-28 20:50:00,30.7,21.8,30.18,SE,130,3.6,3.6,69,0.00,,SKC,0.00,VWS V13.01,2013-03-01 02:50:00,
2013-02-28 21:00:00,30.7,21.4,30.21,NE,40,0.0,3.6,68,0.00,,SKC,0.00,VWS V13.01,2013-03-01 03:00:00,
2013-02-28 21:10:00,30.7,21.4,30.21,NNE,21,0.0,5.4,68,0.00,,SKC,0.00,VWS V13.01,2013-03-01 03:10:00,
2013-02-28 21:20:00,30.6,21.3,30.21,NNE,23,0.0,0.0,68,0.00,,SKC,0.00,VWS V13.01,2013-03-01 03:20:00,
2013-02-28 21:30:00,30.6,21.3,30.21,NE,38,0.0,0.0,68,0.00,,SKC,0.00,VWS V13.01,2013-03-01 03:30:00,
2013-02-28 21:40:00,30.6,21.6,30.21,NNE,33,0.0,0.0,69,0.00,,SKC,0.00,VWS V13.01,2013-03-01 03:40:00,
2013-02-28 21:50:00,30.4,21.4,30.21,NNE,22,0.0,5.4,69,0.00,,SKC,0.00,VWS V13.01,2013-03-01 03:50:00,
2013-02-28 22:00:00,30.2,21.6,30.21,ENE,70,2.2,6.3,70,0.00,,SKC,0.00,VWS V13.01,2013-03-01 04:00:00,
2013-02-28 22:10:00,30.0,21.1,30.21,ENE,69,2.7,5.8,69,0.00,,SKC,0.00,VWS V13.01,2013-03-01 04:10:00,
2013-02-28 22:20:00,29.7,20.8,30.21,NE,45,3.1,6.3,69,0.00,,SKC,0.00,VWS V13.01,2013-03-01 04:20:00,
2013-02-28 22:30:00,29.5,20.6,30.21,ENE,58,3.1,5.4,69,0.00,,SKC,0.00,VWS V13.01,2013-03-01 04:30:00,
2013-02-28 22:40:00,29.5,20.2,30.21,NE,56,3.1,5.4,68,0.00,,SKC,0.00,VWS V13.01,2013-03-01 04:40:00,
2013-02-28 22:50:00,29.3,20.1,30.21,NE,36,3.1,4.9,68,0.00,,SKC,0.00,VWS V13.01,2013-03-01 04:50:00,
2013-02-28 23:00:00,29.1,19.9,30.18,NE,42,3.6,4.9,68,0.00,,SKC,0.00,VWS V13.01,2013-03-01 05:00:00,
2013-02-28 23:10:00,29.1,19.9,30.18,NE,52,0.0,4.9,68,0.00,,SKC,0.00,VWS V13.01,2013-03-01 05:10:00,
2013-02-28 23:20:00,28.9,19.7,30.21,NE,46,0.0,3.6,68,0.00,,SKC,0.00,VWS V13.01,2013-03-01 05:20:00,
2013-02-28 23:30:00,28.9,20.1,30.21,NE,44,0.0,4.0,69,0.00,,SKC,0.00,VWS V13.01,2013-03-01 05:30:00,
2013-02-28 23:40:00,28.8,19.9,30.18,NE,39,2.7,4.9,69,0.00,,SKC,0.00,VWS V13.01,2013-03-01 05:40:00,
2013-02-28 23:50:00,28.6,19.7,30.18,NE,48,0.0,4.0,69,0.00,,SKC,0.00,VWS V13.01,2013-03-01 05:50:00,